Погода в Мальчезине

Италия     45°46′01″N   10°48′41″E
темп.,
°C
ветер,
м/с
пор.,
м/с
влажн.,
%
обл.,
%
осадки,
мм/ч
давл.,
гПа
погр.,
м
8 марта, пн
пн801:00+2св22790 0.0 102086
04:00+1ссв23830 0.0 101994
07:00+1ссв22820 0.0 1018106
10:00+5ю11640 0.0 1018371
13:00+4ююз22805 0.0 1016319
16:00+4ююз127617 0.0 1015254
19:00+3с11839 0.0 101762
22:00+2ссв22841 0.0 101956
9 марта, вт
вт901:00+2ссв33850 0.0 101990
04:00+2ссв34850 0.0 1018114
07:00+2ссв23847 0.0 101888
10:00+5ююз106537 0.1 1017463
13:00+5ююз337465 0.1 1016456
16:00+5ююз1270100 0.1 1015360
19:00+4с1181100 0.1 101732
22:00+3св118498 0.0 101923
10 марта, ср
ср1001:00+2ссв338553 0.0 102074
04:00+2ссв34787 0.0 1020103
07:00+1ссв346911 0.0 1021111
10:00+6всв11440 0.0 1021466
13:00+5ююз33571 0.0 1020421
16:00+5ююз136614 0.0 1019290
19:00+4в018532 0.0 102122
22:00+4св1187100 0.0 102322
11 марта, чт
чт1101:00+3всв118791 0.0 102224
04:00+3ссв118499 0.0 102241
07:00+2ссв228399 0.0 102166
10:00+6ююв1166100 0.0 1021300
13:00+5ююз2379100 0.0 1019326
16:00+6ю1375100 0.0 1018290
19:00+5ююв1187100 0.0 101829
22:00+5с0186100 0.0 101824
12 марта, пт
пт1201:00+4сз0186100 0.0 101622
04:00+4ссв2383100 0.0 101537
07:00+4ссв568297 0.0 1016138
10:00+6св457995 0.0 1015182
13:00+7ю218388 0.2 1014302
16:00+6ю128998 0.9 1012189
19:00+6св119497 1.8 101239
22:00+5св129166 0.5 101322